[[{"header":{"parameterUnit":"m.s-1","parameterCategory":1,"la1":30.2991,"la2":30.254,"lo1":-89.0895,"lo2":-89.0444,"dy":0.0017,"dx":0.0017,"nx":28,"ny":28,"refTime":"2024-04-16T21:00:00:Z","depth":0,"parameterNumber":2,"parameterNumberName":"U-component_of_WINDS"},"data":[0,0,0,0,0,0,0,0,0,0,0,0,0,0,0,0,0,0,0,0,0,0,0,0,0,0,0,0,0,0,0,0,0,0,0,0,0,0,0,0,0,0,0,0,0,0,0,0,0,0,0,0,0,0,0,0,0,0,-1.4382,-1.4382,0,-1.4449,-1.445,-1.4451,-1.4468,-1.4467,-1.4467,-1.4466,-1.4533,-1.4535,-1.4537,0,0,0,0,0,0,0,0,0,0,0,0,0,-1.4264,-1.4266,-1.4382,-1.4382,-1.4383,-1.4449,-1.445,-1.4451,-1.4468,-1.4467,-1.4467,-1.4466,-1.4532,-1.4535,-1.4537,0,0,0,0,0,0,0,0,0,0,0,0,0,-1.4322,-1.4267,-1.4381,-1.44,-1.4402,-1.4449,-1.445,-1.4451,-1.4468,-1.4467,-1.4467,-1.4466,-1.4531,-1.4535,-1.4538,-1.4571,0,0,-1.4548,-1.4549,0,0,0,0,0,0,0,0,-1.4318,-1.4326,-1.4396,-1.4399,-1.4401,-1.4449,-1.4433,-1.4491,-1.4468,-1.4443,-1.4466,-1.4466,-1.4506,-1.4511,-1.4525,-1.4574,-1.4577,-1.4548,-1.455,-1.4551,-1.4552,0,0,0,0,0,0,0,-1.4314,-1.4323,-1.4408,-1.4397,-1.44,-1.4403,-1.4411,-1.4444,-1.4477,-1.4445,-1.4446,-1.4454,-1.4507,-1.4522,-1.4527,-1.4578,-1.4548,-1.4551,-1.4553,-1.4554,-1.4656,-1.4657,0,0,0,0,0,0,-1.4308,-1.432,-1.4406,-1.441,-1.4357,-1.4406,-1.4415,-1.4435,-1.4477,-1.4482,-1.4455,-1.4455,-1.4516,-1.4523,-1.4529,-1.457,-1.4551,-1.4554,-1.4556,-1.4655,-1.4656,-1.4657,0,0,0,0,0,0,-1.4305,-1.4315,-1.4403,-1.4365,-1.4377,-1.4409,-1.4431,-1.4436,-1.4451,-1.4484,-1.449,-1.4464,-1.4516,-1.4524,-1.456,-1.4572,-1.4556,-1.4559,-1.4654,-1.4656,-1.4657,-1.4652,0,0,0,0,0,0,-1.4302,-1.4314,-1.4328,-1.4366,-1.4379,-1.4434,-1.4432,-1.4438,-1.4457,-1.4458,-1.4494,-1.45,-1.4516,-1.4555,-1.4563,-1.4577,-1.4561,-1.4653,-1.4655,-1.4656,-1.4651,-1.4653,-1.4654,0,0,0,0,0,-1.4297,-1.4323,-1.4328,-1.4339,-1.4397,-1.4435,-1.4443,-1.4462,-1.4458,-1.4471,-1.4492,-1.4499,-1.457,-1.4559,-1.4568,-1.4582,-1.4653,-1.4655,-1.4656,-1.4651,-1.4653,-1.4654,0,0,0,0,0,0,-1.4285,-1.4329,-1.4335,-1.4374,-1.4401,-1.4438,-1.4456,-1.4464,-1.4491,-1.4491,-1.4513,-1.4521,-1.4555,-1.4572,-1.4559,-1.4616,-1.4611,-1.4615,-1.4604,-1.4606,-1.4607,-1.4602,-1.4564,0,0,0,0,0,-1.4287,-1.4316,-1.4352,-1.4383,-1.4396,-1.4423,-1.4441,-1.4453,-1.4482,-1.4493,-1.4517,-1.4543,-1.4571,-1.459,-1.4617,-1.4654,-1.4661,-1.4668,-1.467,-1.4671,-1.4674,-1.4693,-1.4696,-1.4663,-1.4663,-1.4663,0,0,-1.4291,-1.4319,-1.4335,-1.4381,-1.4403,-1.4431,-1.4433,-1.4463,-1.4483,-1.4497,-1.4533,-1.4551,-1.4582,-1.4618,-1.4635,-1.4633,-1.4685,-1.4673,-1.4674,-1.4676,-1.4695,-1.4699,-1.4701,-1.4664,-1.4664,-1.4663,0,0,-1.4313,-1.4337,-1.4366,-1.4388,-1.4422,-1.444,-1.4447,-1.4483,-1.4495,-1.4532,-1.4542,-1.4567,-1.4615,-1.4637,-1.4654,-1.4684,-1.469,-1.4692,-1.47,-1.4719,-1.4721,-1.4724,-1.4734,-1.4737,-1.4695,-1.4695,-1.4695,0,-1.4314,-1.4358,-1.4379,-1.4408,-1.4428,-1.4442,-1.447,-1.4491,-1.4532,-1.4544,-1.4542,-1.4603,-1.4625,-1.4666,-1.4673,-1.4687,-1.4694,-1.4688,-1.472,-1.4722,-1.4725,-1.4735,-1.4738,-1.4695,-1.4695,-1.4695,-1.4695,0,-1.4357,-1.4387,-1.4405,-1.4446,-1.4467,-1.4496,-1.452,-1.4539,-1.4549,-1.4567,-1.4603,-1.463,-1.4663,-1.4674,-1.4684,-1.4716,-1.4714,-1.4715,-1.4711,-1.4728,-1.4737,-1.4741,-1.4695,-1.4695,-1.4695,-1.4695,0,0,-1.4373,-1.4425,-1.4431,-1.4449,-1.4487,-1.4511,-1.4539,-1.4573,-1.4588,-1.4616,-1.464,-1.468,-1.4682,-1.4701,-1.4714,-1.4731,-1.4752,-1.473,-1.4731,-1.4733,-1.4788,-1.4786,-1.479,-1.4756,-1.4757,-1.4758,-1.4785,0,-1.44,-1.4453,-1.4472,-1.4515,-1.4543,-1.4557,-1.4582,-1.4607,-1.4624,-1.4649,-1.4668,-1.4696,-1.4696,-1.4708,-1.4725,-1.4745,-1.4763,-1.4744,-1.4778,-1.4779,-1.4769,-1.4795,-1.4794,-1.4819,-1.4789,-1.4789,-1.479,0,-1.4438,-1.4467,-1.4513,-1.4547,-1.456,-1.4582,-1.4614,-1.4638,-1.4667,-1.4678,-1.4699,-1.4711,-1.474,-1.4734,-1.4774,-1.4761,-1.4776,-1.4788,-1.4789,-1.4793,-1.4785,-1.4799,-1.4827,-1.483,-1.4796,-1.4796,-1.4795,0,-1.4445,-1.4495,-1.4529,-1.4544,-1.4585,-1.4601,-1.4618,-1.4647,-1.4665,-1.4693,-1.4705,-1.4735,-1.4751,-1.4774,-1.4792,-1.4786,-1.4831,-1.4826,-1.484,-1.484,-1.4849,-1.4848,-1.4879,-1.4859,-1.4859,-1.4859,-1.4859,0,-1.4473,-1.45,-1.4533,-1.4554,-1.4584,-1.4606,-1.4635,-1.4654,-1.4679,-1.4703,-1.4716,-1.4738,-1.4762,-1.4786,-1.4801,-1.4832,-1.4839,-1.4848,-1.4852,-1.4847,-1.4846,-1.4857,-1.4856,-1.486,-1.486,-1.4859,-1.4859,0,-1.4486,-1.4509,-1.4547,-1.4583,-1.4592,-1.4613,-1.4644,-1.4664,-1.4681,-1.4711,-1.4719,-1.4747,-1.4776,-1.4798,-1.4835,-1.4845,-1.4878,-1.4882,-1.4869,-1.4871,-1.4883,-1.4882,-1.4922,-1.4928,-1.4904,-1.4905,-1.4905,0,-1.4502,-1.4524,-1.4562,-1.4579,-1.4597,-1.4625,-1.4644,-1.4665,-1.4685,-1.4719,-1.4734,-1.4765,-1.4791,-1.4837,-1.486,-1.4889,-1.4893,-1.4905,-1.4897,-1.4891,-1.4892,-1.4891,-1.4893,-1.4906,-1.4906,-1.4906,-1.4906,0,-1.4528,-1.4538,-1.4566,-1.4597,-1.462,-1.4645,-1.4671,-1.4684,-1.471,-1.4731,-1.4762,-1.4782,-1.482,-1.485,-1.4881,-1.4898,-1.4906,-1.4909,-1.4913,-1.4909,-1.49,-1.4904,-1.4872,-1.4908,-1.4908,-1.4908,-1.4907,-1.4907,-1.4543,-1.4562,-1.4592,-1.4622,-1.4644,-1.4668,-1.4688,-1.4709,-1.4735,-1.4769,-1.478,-1.4811,-1.4839,-1.4881,-1.4899,-1.4923,-1.4922,-1.4929,-1.4931,-1.4932,-1.4932,-1.4896,-1.4929,-1.4929,-1.4929,-1.4929,-1.4929,0,-1.4569,-1.4589,-1.4616,-1.4652,-1.4676,-1.4682,-1.471,-1.4729,-1.4757,-1.4783,-1.4808,-1.4843,-1.4872,-1.4896,-1.4926,-1.4941,-1.4945,-1.4948,-1.4947,-1.495,-1.4931,-1.4924,-1.4944,-1.4944,-1.4944,-1.4944,-1.4944,-1.4944,-1.4585,-1.4619,-1.4632,-1.4676,-1.4696,-1.4728,-1.4743,-1.4765,-1.4785,-1.4824,-1.4848,-1.4864,-1.4889,-1.492,-1.4947,-1.4953,-1.4963,-1.4965,-1.4972,-1.4953,-1.4952,-1.495,-1.4943,-1.4967,-1.4967,-1.499,-1.499,-1.499]},{"header":{"parameterUnit":"m.s-1","parameterCategory":1,"la1":30.2991,"la2":30.254,"lo1":-89.0895,"lo2":-89.0444,"dy":0.0017,"dx":0.0017,"nx":28,"ny":28,"refTime":"2024-04-16T21:00:00:Z","depth":0,"parameterNumber":3,"parameterNumberName":"V-component_of_WINDS"},"data":[0,0,0,0,0,0,0,0,0,0,0,0,0,0,0,0,0,0,0,0,0,0,0,0,0,0,0,0,0,0,0,0,0,0,0,0,0,0,0,0,0,0,0,0,0,0,0,0,0,0,0,0,0,0,0,0,0,0,0.4898,0.4898,0,0.4884,0.4884,0.4884,0.4852,0.4852,0.4851,0.485,0.4839,0.484,0.484,0,0,0,0,0,0,0,0,0,0,0,0,0,0.4903,0.4903,0.4898,0.4898,0.4898,0.4884,0.4884,0.4884,0.4852,0.4851,0.4851,0.485,0.4839,0.484,0.484,0,0,0,0,0,0,0,0,0,0,0,0,0,0.4896,0.4903,0.4898,0.488,0.4879,0.4884,0.4884,0.4884,0.4852,0.4851,0.485,0.485,0.4839,0.484,0.484,0.4863,0,0,0.4842,0.4842,0,0,0,0,0,0,0,0,0.4896,0.4896,0.4883,0.4882,0.488,0.4869,0.4881,0.4877,0.4853,0.4862,0.485,0.4849,0.485,0.485,0.4849,0.4862,0.4862,0.4842,0.4842,0.4842,0.4842,0,0,0,0,0,0,0,0.4897,0.4896,0.4893,0.4883,0.4881,0.4875,0.4873,0.488,0.4862,0.4862,0.4859,0.4858,0.4849,0.4849,0.4849,0.4862,0.4842,0.4842,0.4842,0.4843,0.4896,0.4897,0,0,0,0,0,0,0.4899,0.4897,0.4893,0.4892,0.4886,0.4875,0.4873,0.4873,0.4862,0.4859,0.4859,0.4856,0.4849,0.4848,0.4848,0.4876,0.4842,0.4843,0.4843,0.4895,0.4896,0.4898,0,0,0,0,0,0,0.49,0.4899,0.4894,0.4894,0.4893,0.4876,0.4877,0.4874,0.4873,0.486,0.4857,0.4862,0.4848,0.4848,0.486,0.4876,0.4843,0.4843,0.4894,0.4895,0.4897,0.4931,0,0,0,0,0,0,0.49,0.4899,0.4907,0.4894,0.4893,0.4904,0.4878,0.4874,0.4874,0.4871,0.4862,0.4859,0.4847,0.4859,0.486,0.4876,0.4844,0.4892,0.4894,0.4896,0.4929,0.4934,0.4939,0,0,0,0,0,0.49,0.4917,0.4907,0.4907,0.4901,0.4905,0.4904,0.4889,0.4875,0.4883,0.4875,0.486,0.4873,0.4861,0.4862,0.4877,0.4891,0.4894,0.4896,0.4927,0.4933,0.4938,0,0,0,0,0,0,0.4932,0.4915,0.4904,0.4917,0.4912,0.4899,0.4909,0.4895,0.4896,0.4893,0.4875,0.4873,0.4889,0.4884,0.487,0.49,0.488,0.4883,0.4903,0.4909,0.4914,0.4915,0.4844,0,0,0,0,0,0.4941,0.4944,0.4929,0.4942,0.494,0.4925,0.4926,0.4915,0.491,0.4908,0.4901,0.4898,0.4902,0.4905,0.4908,0.4928,0.4927,0.4939,0.4944,0.4948,0.4951,0.4965,0.4971,0.4906,0.4906,0.4906,0,0,0.4958,0.4949,0.4952,0.4948,0.4943,0.4949,0.4924,0.493,0.4935,0.491,0.4921,0.4916,0.4912,0.4929,0.4936,0.4925,0.4969,0.4951,0.4955,0.4956,0.4968,0.4974,0.498,0.4908,0.4907,0.4907,0,0,0.4994,0.4986,0.4997,0.4994,0.4987,0.4977,0.498,0.4969,0.4965,0.4975,0.4958,0.4964,0.497,0.4969,0.4969,0.5007,0.4994,0.5008,0.5034,0.5048,0.5053,0.5057,0.5073,0.5079,0.5011,0.5011,0.5011,0,0.5017,0.5023,0.5005,0.5013,0.5013,0.499,0.5003,0.5001,0.4995,0.4997,0.4985,0.4994,0.499,0.5008,0.5017,0.5017,0.5022,0.5009,0.5053,0.5058,0.5062,0.5077,0.5083,0.5013,0.5013,0.5013,0.5013,0,0.5054,0.5058,0.5069,0.5064,0.5065,0.5075,0.5061,0.5065,0.5054,0.5046,0.5059,0.5053,0.5056,0.5059,0.5048,0.5076,0.507,0.5056,0.5035,0.507,0.5084,0.509,0.5016,0.5015,0.5015,0.5014,0,0,0.5108,0.5095,0.5099,0.5098,0.509,0.5094,0.5105,0.5106,0.5111,0.5109,0.5119,0.5126,0.5114,0.5114,0.5103,0.5115,0.5149,0.5099,0.5099,0.5111,0.5183,0.5195,0.5202,0.5139,0.514,0.5141,0.5184,0,0.5144,0.5159,0.5145,0.5165,0.5171,0.515,0.516,0.5157,0.5151,0.5156,0.5149,0.5156,0.5137,0.5138,0.5148,0.5142,0.5163,0.5139,0.5152,0.5152,0.5155,0.5209,0.5221,0.5262,0.5189,0.519,0.5191,0,0.5186,0.5186,0.5207,0.5199,0.5201,0.521,0.5212,0.5217,0.5214,0.5209,0.5211,0.5198,0.521,0.5189,0.5208,0.5192,0.5196,0.5194,0.5196,0.5198,0.5175,0.5215,0.5274,0.5281,0.5199,0.5198,0.5198,0,0.5227,0.5232,0.5246,0.5245,0.5236,0.5244,0.5241,0.5237,0.524,0.5242,0.5244,0.5248,0.5251,0.5255,0.5245,0.523,0.5266,0.5243,0.5265,0.5265,0.5274,0.5274,0.5338,0.5274,0.5274,0.5274,0.5273,0,0.5269,0.5283,0.5264,0.5273,0.5289,0.5273,0.529,0.5285,0.5282,0.5291,0.5274,0.5283,0.5267,0.5276,0.5268,0.5287,0.5287,0.5285,0.5284,0.5288,0.5289,0.5292,0.529,0.5275,0.5275,0.5274,0.5274,0,0.5318,0.5306,0.532,0.531,0.5309,0.5321,0.5315,0.5323,0.5316,0.5328,0.533,0.5319,0.5329,0.5318,0.5327,0.5322,0.5348,0.534,0.5348,0.5347,0.537,0.5369,0.5439,0.5449,0.5377,0.5377,0.5378,0,0.5346,0.5357,0.5349,0.5354,0.5352,0.5358,0.5362,0.5347,0.5351,0.5351,0.5361,0.5368,0.5374,0.539,0.5384,0.5392,0.5386,0.541,0.5387,0.5393,0.539,0.539,0.5393,0.5416,0.5417,0.5417,0.5418,0,0.5399,0.5393,0.5397,0.54,0.5405,0.5406,0.5407,0.5412,0.5397,0.5404,0.5412,0.5417,0.5426,0.5435,0.5441,0.544,0.5428,0.5425,0.5431,0.5437,0.5442,0.5442,0.5364,0.5424,0.5423,0.5423,0.5422,0.5422,0.544,0.545,0.5446,0.5453,0.5452,0.5454,0.5462,0.5456,0.5463,0.5469,0.546,0.5473,0.5473,0.5479,0.548,0.5491,0.5481,0.5489,0.5491,0.5494,0.5499,0.5439,0.5492,0.5492,0.5492,0.5492,0.5491,0,0.5494,0.5492,0.5497,0.5499,0.5505,0.5491,0.5492,0.5499,0.5509,0.551,0.5516,0.5528,0.5537,0.5533,0.5542,0.5552,0.5547,0.5555,0.5555,0.5556,0.5506,0.5501,0.5559,0.5559,0.5559,0.5559,0.5559,0.5559,0.5523,0.5539,0.5533,0.555,0.5547,0.5558,0.5561,0.5563,0.5564,0.5578,0.5585,0.5582,0.5582,0.559,0.56,0.5598,0.5604,0.5614,0.5612,0.5565,0.5559,0.5553,0.5548,0.5615,0.5615,0.5661,0.5661,0.5662]}]]